When you browse on this site, cookies collect data to enhance your experience and personalize the content and advertising you see.
Visit our Privacy Policy to learn more. By continuing to use the site, you agree to this use of cookies and data.
  • In Denmark
  • List of Countries
  • For 7 days
  • Water Temperature
  • Satellite Maps
  • Weather Map
  • Weather Widgets
  • user-avatar
    Login

    Hourly Weather Szczerez

    Today, 19 February, Tuesday

    Time Temperature Precipitation Wind Pressure Humidity
    00:00 +2°C° 0 mm 2 mps 718 mmHg 71%
    01:00 +2°C° 0 mm 2 mps 717 mmHg 69%
    02:00 +2°C° 0 mm 2 mps 717 mmHg 68%
    03:00 +1°C° 0 mm 2 mps 717 mmHg 68%
    04:00 +1°C° 0 mm 2 mps 716 mmHg 67%
    05:00 +1°C° 0 mm 2 mps 716 mmHg 69%
    06:00 +1°C° 0 mm 2 mps 716 mmHg 70%
    07:00 +1°C° 0 mm 2 mps 716 mmHg 71%
    08:00 +3°C° 0 mm 2 mps 716 mmHg 68%
    09:00 +5°C° 0 mm 2 mps 717 mmHg 65%
    10:00 +7°C° 0 mm 2 mps 717 mmHg 62%
    11:00 +9°C° 0 mm 2 mps 716 mmHg 60%
    12:00 +10°C° 0 mm 2 mps 716 mmHg 58%
    13:00 +12°C° 0 mm 2 mps 716 mmHg 55%
    14:00 +11°C° 0 mm 1 mps 716 mmHg 61%
    15:00 +10°C° 0 mm 1 mps 716 mmHg 66%
    16:00 +9°C° 0 mm 1 mps 715 mmHg 71%
    17:00 +8°C° 0 mm 1 mps 715 mmHg 75%
    18:00 +6°C° 0 mm 1 mps 715 mmHg 80%
    19:00 +3°C° 0 mm 2 mps 715 mmHg 84%
    20:00 +3°C° 0 mm 2 mps 715 mmHg 83%
    21:00 +3°C° 0 mm 2 mps 715 mmHg 81%
    22:00 +2°C° 0 mm 2 mps 715 mmHg 80%
    23:00 +3°C° 0.2 mm 2 mps 715 mmHg 81%

    Tomorrow, 20 February, Wednesday

    Time Temperature Precipitation Wind Pressure Humidity
    00:00 +3°C° 0.2 mm 2 mps 715 mmHg 82%
    01:00 +3°C° 0.2 mm 2 mps 715 mmHg 83%
    02:00 +3°C° 0.4 mm 2 mps 715 mmHg 86%
    03:00 +3°C° 0.4 mm 2 mps 715 mmHg 89%
    04:00 +3°C° 0.4 mm 2 mps 715 mmHg 93%
    05:00 +2°C° 0 mm 2 mps 715 mmHg 92%
    06:00 +2°C° 0 mm 2 mps 715 mmHg 92%
    07:00 +2°C° 0 mm 2 mps 716 mmHg 91%
    08:00 +1°C° 0.1 mm 3 mps 716 mmHg 87%
    09:00 +1°C° 0.1 mm 4 mps 716 mmHg 83%
    10:00 +3°C° 0.1 mm 4 mps 717 mmHg 79%
    11:00 +3°C° 0.1 mm 4 mps 717 mmHg 77%
    12:00 +3°C° 0.1 mm 5 mps 717 mmHg 74%
    13:00 +3°C° 0.1 mm 5 mps 717 mmHg 71%
    14:00 +4°C° 0.1 mm 4 mps 717 mmHg 72%
    15:00 +3°C° 0.1 mm 4 mps 717 mmHg 73%
    16:00 +3°C° 0.1 mm 4 mps 717 mmHg 73%
    17:00 +2°C° 0 mm 3 mps 718 mmHg 77%
    18:00 +2°C° 0 mm 3 mps 718 mmHg 81%
    19:00 +1°C° 0 mm 3 mps 718 mmHg 84%
    20:00 +1°C° 0.1 mm 3 mps 719 mmHg 85%
    21:00 +1°C° 0.1 mm 3 mps 719 mmHg 85%
    22:00 +1°C° 0.1 mm 3 mps 719 mmHg 85%
    23:00 +2°C° 0 mm 2 mps 719 mmHg 86%

    Day after tomorrow, 21 February, Thursday

    Time Temperature Precipitation Wind Pressure Humidity
    00:00 +2°C° 0 mm 2 mps 719 mmHg 86%
    01:00 +2°C° 0 mm 2 mps 720 mmHg 86%
    02:00 +2°C° 0 mm 2 mps 720 mmHg 86%
    03:00 +2°C° 0 mm 2 mps 719 mmHg 86%
    04:00 +1°C° 0 mm 2 mps 719 mmHg 85%
    05:00 +2°C° 0 mm 2 mps 720 mmHg 86%
    06:00 +2°C° 0 mm 2 mps 720 mmHg 86%
    07:00 +2°C° 0 mm 2 mps 720 mmHg 86%
    08:00 +3°C° 0.1 mm 2 mps 720 mmHg 83%
    09:00 +4°C° 0.1 mm 2 mps 720 mmHg 80%
    10:00 +5°C° 0.1 mm 2 mps 720 mmHg 77%
    11:00 +5°C° 0.1 mm 2 mps 720 mmHg 77%
    12:00 +4°C° 0.1 mm 3 mps 720 mmHg 77%
    13:00 +5°C° 0.1 mm 3 mps 719 mmHg 77%
    14:00 +4°C° 0.3 mm 3 mps 719 mmHg 80%
    15:00 +4°C° 0.3 mm 3 mps 719 mmHg 82%
    16:00 +4°C° 0.3 mm 3 mps 718 mmHg 84%
    17:00 +3°C° 1 mm 3 mps 718 mmHg 85%
    18:00 +3°C° 1 mm 3 mps 718 mmHg 86%
    19:00 +3°C° 1 mm 3 mps 718 mmHg 86%
    20:00 +3°C° 0.2 mm 3 mps 718 mmHg 87%
    21:00 +3°C° 0.2 mm 3 mps 718 mmHg 87%
    22:00 +3°C° 0.2 mm 3 mps 717 mmHg 87%
    23:00 +3°C° 0.5 mm 3 mps 717 mmHg 89%

    22 February, Friday

    Time Temperature Precipitation Wind Pressure Humidity
    00:00 +3°C° 0.5 mm 3 mps 717 mmHg 91%
    01:00 +3°C° 0.5 mm 3 mps 717 mmHg 94%
    02:00 +3°C° 0.7 mm 3 mps 717 mmHg 94%
    03:00 +3°C° 0.7 mm 3 mps 716 mmHg 95%
    04:00 +3°C° 0.7 mm 3 mps 716 mmHg 96%
    05:00 +3°C° 0.8 mm 4 mps 717 mmHg 95%
    06:00 +3°C° 0.8 mm 4 mps 717 mmHg 95%
    07:00 +2°C° 0.8 mm 5 mps 718 mmHg 95%
    08:00 0°C° 0.6 mm 5 mps 719 mmHg 94%
    09:00 -2°C° 0.6 mm 4 mps 719 mmHg 93%
    10:00 -3°C° 0.6 mm 4 mps 720 mmHg 92%
    11:00 -3°C° 0.2 mm 4 mps 721 mmHg 88%
    12:00 -5°C° 0.2 mm 5 mps 722 mmHg 84%
    13:00 -5°C° 0.2 mm 5 mps 723 mmHg 81%
    14:00 -5°C° 0 mm 5 mps 723 mmHg 77%
    15:00 -5°C° 0 mm 5 mps 724 mmHg 74%
    16:00 -5°C° 0 mm 5 mps 724 mmHg 71%
    17:00 -5°C° 0 mm 4 mps 725 mmHg 74%
    18:00 -6°C° 0 mm 3 mps 726 mmHg 77%
    19:00 -7°C° 0 mm 3 mps 726 mmHg 80%
    20:00 -6°C° 0 mm 2 mps 727 mmHg 80%
    21:00 -7°C° 0 mm 2 mps 727 mmHg 81%
    22:00 -6°C° 0 mm 1 mps 727 mmHg 81%
    23:00 -6°C° 0 mm 1 mps 728 mmHg 80%

    23 February, Saturday

    Time Temperature Precipitation Wind Pressure Humidity
    00:00 -6°C° 0 mm 1 mps 728 mmHg 78%
    01:00 -6°C° 0 mm 1 mps 728 mmHg 76%
    02:00 -6°C° 0 mm 1 mps 728 mmHg 76%
    03:00 -7°C° 0 mm 2 mps 728 mmHg 75%
    04:00 -7°C° 0 mm 2 mps 727 mmHg 74%
    05:00 -7°C° 0 mm 2 mps 727 mmHg 75%
    06:00 -7°C° 0 mm 2 mps 728 mmHg 76%
    07:00 -7°C° 0 mm 2 mps 728 mmHg 77%
    08:00 -6°C° 0 mm 2 mps 728 mmHg 70%
    09:00 -6°C° 0 mm 3 mps 728 mmHg 63%
    10:00 -5°C° 0 mm 3 mps 728 mmHg 56%
    11:00 -5°C° 0 mm 3 mps 728 mmHg 51%
    12:00 -4°C° 0 mm 3 mps 728 mmHg 47%
    13:00 -2°C° 0 mm 3 mps 728 mmHg 43%
    14:00 -4°C° 0 mm 3 mps 728 mmHg 43%
    15:00 -3°C° 0 mm 2 mps 727 mmHg 44%
    16:00 -3°C° 0 mm 2 mps 727 mmHg 45%
    17:00 -4°C° 0 mm 2 mps 727 mmHg 48%
    18:00 -4°C° 0 mm 2 mps 727 mmHg 52%
    19:00 -3°C° 0 mm 1 mps 727 mmHg 56%
    20:00 -3°C° 0 mm 1 mps 727 mmHg 56%
    21:00 -3°C° 0 mm 1 mps 727 mmHg 56%
    22:00 -2°C° 0 mm 1 mps 727 mmHg 56%
    23:00 -3°C° 0 mm 1 mps 727 mmHg 58%

    24 February, Sunday

    Time Temperature Precipitation Wind Pressure Humidity
    00:00 -3°C° 0 mm 1 mps 727 mmHg 60%
    01:00 -3°C° 0 mm 1 mps 727 mmHg 62%
    02:00 -4°C° 0 mm 1 mps 727 mmHg 64%
    03:00 -4°C° 0 mm 1 mps 727 mmHg 66%
    04:00 -4°C° 0 mm 1 mps 727 mmHg 68%
    05:00 -4°C° 0 mm 1 mps 727 mmHg 69%
    06:00 -6°C° 0 mm 1 mps 727 mmHg 70%
    07:00 -6°C° 0 mm 1 mps 727 mmHg 72%
    08:00 -3°C° 0 mm 1 mps 728 mmHg 66%
    09:00 -2°C° 0 mm 1 mps 728 mmHg 61%
    10:00 -1°C° 0 mm 1 mps 728 mmHg 55%
    11:00 -2°C° 0 mm 2 mps 728 mmHg 53%
    12:00 -2°C° 0 mm 2 mps 728 mmHg 51%
    13:00 -1°C° 0 mm 2 mps 728 mmHg 49%
    14:00 -1°C° 0 mm 2 mps 728 mmHg 51%
    15:00 -2°C° 0 mm 2 mps 728 mmHg 53%
    16:00 -2°C° 0 mm 2 mps 728 mmHg 55%
    17:00 -1°C° 0 mm 1 mps 728 mmHg 59%
    18:00 -2°C° 0 mm 1 mps 728 mmHg 64%
    19:00 -4°C° 0 mm 0 mps 728 mmHg 69%
    20:00 -4°C° 0 mm 0 mps 728 mmHg 69%
    21:00 -4°C° 0 mm 0 mps 728 mmHg 70%
    22:00 -4°C° 0 mm 0 mps 728 mmHg 70%
    23:00 -4°C° 0 mm 0 mps 728 mmHg 70%
    Show more